| time (UTC) | temp F | wind direction | speed knots | gust knots | rain 1hr in | rain 24hr in | rain mn in | humidity % | barometer mb |
| 20260504044559 | 69 | 0 | 0.0 | 0.9 | 0.00 | 0.00 | 0.00 | 65 | 1009.6 |
| 20260504043055 | 69 | 0 | 0.0 | 2.6 | 0.00 | 0.00 | 0.00 | 65 | 1009.4 |
| 20260504041543 | 69 | 0 | 0.0 | 1.7 | 0.00 | 0.00 | 0.00 | 65 | 1009.0 |
| 20260504034609 | 70 | 0 | 0.0 | 0.0 | 0.00 | 0.00 | 0.00 | 66 | 1008.3 |
| 20260504033047 | 71 | 0 | 0.0 | 0.0 | 0.00 | 0.00 | 0.00 | 64 | 1008.0 |
| 20260504031544 | 72 | 0 | 0.0 | 0.0 | 0.00 | 0.00 | 0.00 | 62 | 1007.8 |
| 20260504030058 | 74 | 0 | 0.0 | 0.0 | 0.00 | 0.00 | 0.00 | 58 | 1007.7 |
| 20260504024541 | 76 | 0 | 0.0 | 0.0 | 0.00 | 0.00 | 0.00 | 54 | 1007.6 |
| 20260504023043 | 77 | 0 | 0.0 | 0.0 | 0.00 | 0.00 | 0.00 | 50 | 1007.6 |
| 20260504021550 | 79 | 0 | 0.0 | 0.0 | 0.00 | 0.00 | 0.00 | 48 | 1007.8 |
| 20260504020043 | 82 | 0 | 0.0 | 1.7 | 0.00 | 0.00 | 0.00 | 45 | 1007.8 |
| 20260504014555 | 84 | 0 | 0.0 | 2.6 | 0.00 | 0.00 | 0.00 | 39 | 1007.7 |
| 20260504013054 | 84 | 0 | 0.0 | 3.5 | 0.00 | 0.00 | 0.00 | 37 | 1007.8 |
| 20260504011548 | 85 | 78 | 0.9 | 4.3 | 0.00 | 0.00 | 0.00 | 36 | 1007.8 |
| 20260504010043 | 85 | 0 | 0.9 | 3.5 | 0.00 | 0.00 | 0.00 | 36 | 1007.8 |
| 20260504004546 | 85 | 29 | 0.9 | 3.5 | 0.00 | 0.00 | 0.00 | 36 | 1007.7 |
| 20260504003043 | 86 | 345 | 0.9 | 5.2 | 0.00 | 0.00 | 0.00 | 34 | 1007.9 |
| 20260504001600 | 86 | 348 | 0.0 | 3.5 | 0.00 | 0.00 | 0.00 | 34 | 1007.8 |
| 20260504000042 | 85 | 20 | 1.7 | 7.0 | 0.00 | 0.00 | 0.00 | 33 | 1007.8 |
| 20260503234544 | 85 | 342 | 1.7 | 5.2 | 0.00 | 0.00 | 0.00 | 32 | 1007.8 |
| 20260503233046 | 84 | 0 | 1.7 | 7.8 | 0.00 | 0.00 | 0.00 | 35 | 1007.8 |
| 20260503231539 | 84 | 317 | 1.7 | 8.7 | 0.00 | 0.00 | 0.00 | 36 | 1008.0 |
| 20260503230043 | 84 | 35 | 1.7 | 7.0 | 0.00 | 0.00 | 0.00 | 41 | 1008.2 |
| 20260503224543 | 84 | 32 | 1.7 | 7.8 | 0.00 | 0.00 | 0.00 | 42 | 1008.4 |
| 20260503223043 | 83 | 20 | 2.6 | 7.8 | 0.00 | 0.00 | 0.00 | 43 | 1008.7 |
| 20260503221547 | 84 | 332 | 0.9 | 7.8 | 0.00 | 0.00 | 0.00 | 44 | 1008.9 |
| 20260503220043 | 84 | 0 | 0.9 | 5.2 | 0.00 | 0.00 | 0.00 | 44 | 1009.1 |
| 20260503214547 | 83 | 45 | 0.9 | 4.3 | 0.00 | 0.00 | 0.00 | 46 | 1009.4 |
| 20260503213049 | 83 | 169 | 0.9 | 6.1 | 0.00 | 0.00 | 0.00 | 44 | 1009.6 |
| 20260503211549 | 82 | 0 | 0.9 | 4.3 | 0.00 | 0.00 | 0.00 | 45 | 1009.7 |
| 20260503210048 | 81 | 244 | 1.7 | 6.1 | 0.00 | 0.00 | 0.00 | 46 | 1009.8 |
| 20260503204553 | 81 | 360 | 0.9 | 3.5 | 0.00 | 0.00 | 0.00 | 48 | 1009.9 |
| 20260503203049 | 80 | 241 | 0.9 | 5.2 | 0.00 | 0.00 | 0.00 | 48 | 1010.0 |
| 20260503201547 | 79 | 190 | 1.7 | 6.1 | 0.00 | 0.00 | 0.00 | 51 | 1010.2 |
| 20260503200042 | 78 | 311 | 0.9 | 4.3 | 0.00 | 0.00 | 0.00 | 54 | 1010.5 |
| 20260503194546 | 77 | 30 | 1.7 | 4.3 | 0.00 | 0.00 | 0.00 | 55 | 1010.7 |
| 20260503193049 | 76 | 0 | 0.9 | 4.3 | 0.00 | 0.00 | 0.00 | 57 | 1010.9 |
| 20260503191550 | 75 | 340 | 1.7 | 4.3 | 0.00 | 0.00 | 0.00 | 57 | 1011.1 |
| 20260503184543 | 73 | 28 | 0.9 | 6.1 | 0.00 | 0.00 | 0.00 | 60 | 1011.5 |
| 20260503183055 | 72 | 40 | 0.9 | 4.3 | 0.00 | 0.00 | 0.00 | 62 | 1011.6 |
| 20260503181548 | 71 | 90 | 1.7 | 3.5 | 0.00 | 0.00 | 0.00 | 63 | 1011.6 |
| 20260503180056 | 69 | 352 | 1.7 | 4.3 | 0.00 | 0.00 | 0.00 | 64 | 1011.7 |
| 20260503174542 | 69 | 98 | 0.9 | 3.5 | 0.00 | 0.00 | 0.00 | 65 | 1011.9 |
| 20260503173106 | 67 | 352 | 0.9 | 4.3 | 0.00 | 0.00 | 0.00 | 68 | 1012.0 |
| 20260503171550 | 66 | 58 | 1.7 | 4.3 | 0.00 | 0.00 | 0.00 | 70 | 1012.1 |
| 20260503081547 | 52 | 0 | 0.0 | 0.0 | 0.00 | 0.00 | 0.00 | 92 | 1012.4 |
| 20260503071550 | 54 | 0 | 0.0 | 0.0 | 0.00 | 0.00 | 0.00 | 90 | 1012.4 |
| 20260503054544 | 57 | 0 | 0.0 | 0.0 | 0.00 | 0.00 | 0.00 | 87 | 1012.3 |
| 20260503053045 | 57 | 0 | 0.0 | 0.0 | 0.00 | 0.00 | 0.00 | 87 | 1012.5 |
| 20260503051556 | 58 | 0 | 0.0 | 0.0 | 0.00 | 0.00 | 0.00 | 86 | 1012.4 |